Location: Boulin
(43.2500°N, 0.1333°E)
Time: 01:11:55
(UTC+00:00)

Cosmos 1933 - Pass Details

Date: 16 March 2026
Orbit: 507 x 515 km, 82.5° (Epoch: 14 April)

Event Time Altitude Azimuth Distance (km) Brightness Sun altitude
Rises 04:32:23 0° 167° (SSE) 2,619 6.8 -18.4°
Reaches altitude 10° 04:34:37 10° 158° (SSE) 1,737 5.9 -18.1°
Maximum altitude 04:38:05 35° 92° (E) 854 4.9 -17.4°
Drops below altitude 10° 04:41:35 10° 26° (NNE) 1,748 6.4 -16.8°
Sets 04:43:51 0° 17° (NNE) 2,639 7.2 -16.4°
